TIROS 6 DEB

Satellite information

Favourite Embed

Satellite Type and Status

DEBRISIN ORBIT

Key statistics

Satellite TIROS 6 DEB at a glance.

Uptime

23001

Days in orbit

Revolutions

≈ 14.9

Per day

Orbit

LEO

Low Earth Orbit

Inclination

58.3

Latest

Satellite identification and parameters

Extended collection of information and parameters for TIROS 6 DEB.

Object identification

Identified? True

Debris? True

Object name: TIROS 6 DEB

International designator: 1962-047F

Object number (NORAD): 29006

Object ID (CCSDS): 29006

Country: UNITED STATES OF AMERICA (US)

Current information (Y/N): Y

RCS size: SMALL

Orbital parameters

Period: 96.953 minutes

Inclination: 58.3106 deg

SMA: 6990.941 km

Apoapsis: 617.617 km

Periapsis: 607.995 km

RAAN: 30.5756 deg

Eccentricy: 0.0006882

Argument of periapsis: 7.6102 deg

Mean anomaly: 352.5044 deg

Mean motion: 14.8524912 rev/day

Mean motion (dot): 0.00001821 rev/day2

B* drag term: 0.00023482792 1/REarth

Two-line elements (TLE)

Creation date: Sept. 3, 2025, 10:15 a.m.

Reference frame: TEME

Reference center: EARTH

Epoch: Sept. 3, 2025, 3:07 a.m. UTC

TLE line 0: 0 TIROS 6 DEB

TLE line 1: 1 29006U 62047F 25246.12993578 .00001821 00000-0 23483-3 0 9994

TLE line 2: 2 29006 58.3106 30.5756 0006882 7.6102 352.5044 14.85249120658972

Live tracking on map

Real-time ground track for satellite TIROS 6 DEB.

In-orbit conjunctions

A list of the most updated potential collisions computed for object TIROS 6 DEB.

Target Orbit TCA Probability of collision Miss distance Type
SL-14 R/B LEO 2024-05-30 15:42:20 0.000365224 313.0 (m) ROCKET BODY
SL-14 R/B LEO 2024-05-30 14:05:12 0.000241537 738.0 (m) ROCKET BODY

Associated space launch

NASA's TIROS (Television & Infra-Red Observation Satellite) program was the first experimental weathersatellite program.

TIROS 6 DEB was lifted into orbit during the mission ‘Thor Delta | Tiros 6’, on board a Thor Delta space rocket.

The launch took place on Sept. 18, 1962, 8:53 a.m. from Space Launch Complex 17A.

For more information about the launch, click the button.

Launch to space Thor Delta | Tiros 6
Thor Delta | Tiros 6

Agency: N/A

Status: Launch Successful

Launch date: Sept. 18, 1962, 8:53 a.m. UTC

Rocket: Thor Delta

Launch pad: Space Launch Complex 17A

Location: Cape Canaveral SFS, FL, USA

...

Latest news about this satellite

There are no fresh news available about this satellite. Check back as we update our databases every day.


Newsletter sign-up

Weekly statistics, charts and insights to help you stay on top of the space industry.